カタログに戻る

COSMOS 2088

運用中軍事LEO
NORAD 20720·PAYLOAD·🇷🇺 Russia

打ち上げ Jul 30, 1990 から Plesetsk Cosmodrome

Loading…

次のパス (今後24時間)

TLE

最新Source: Space-Track

元期: Sep 14, 2026, 19:05 UTC

1 20720U 90066A   26257.79540019 -.00000025  00000-0 -55752-4 0  9996
2 20720  73.5951 270.6905 0024704 133.7263  38.8843 12.40784304636264

AllMySatでCOSMOS 2088をリアルタイム追跡

Download on the App Store